Weather History for Erie, PA

Change the Weather History Date:

Wednesday, May 2, 2012

  Actual Average Record
Temperature  
Mean Temperature 66 °F 53 °F  
Max Temperature 82 °F 62 °F 86 °F (1887)
Min Temperature 50 °F 44 °F 30 °F (1963)
Degree Days  
Heating Degree Days 0 13  
Month to date heating degree days 10 26  
Since 1 July heating degree days 4785 5845  
Cooling Degree Days 1 0  
Month to date cooling degree days 1 0  
Year to date cooling degree days 12 7  
Growing Degree Days 16 (Base 50)    
Moisture  
Dew Point 57 °F    
Average Humidity 74    
Maximum Humidity 93    
Minimum Humidity 55    
Precipitation  
Precipitation 0.01 in 0.10 in 1.37 in (1929)
Month to date precipitation 0.22 0.20  
Year to date precipitation 10.88 11.82  
Snow  
Snow 0.00 in 0.00 in - ()
Month to date snowfall 0.0 0.0  
Since 1 July snowfall 47.6 100.9  
Snow Depth 0.00 in    
Sea Level Pressure  
Sea Level Pressure 29.96 in    
Wind  
Wind Speed 6 mph (WSW)    
Max Wind Speed 16 mph    
Max Gust Speed 24 mph    
Visibility 9 miles    
Events      
T = Trace of Precipitation, MM = Missing Value Source: NWS Daily Summary

Daily Weather History Graph

Daily Weather History Graph

Search for Another Location

Airport:

Trip Planner

Search our weather history database for the weather conditions in past years. The results will help you decide how hot, cold, wet, or windy it might be!

Date:

Astronomy

May. 02, 2012 Rise Set
Actual Time 6:14 AM EDT 8:21 PM EDT
Civil Twilight 5:43 AM EDT 8:52 PM EDT
Nautical Twilight 5:06 AM EDT 9:29 PM EDT
Astronomical Twilight 4:25 AM EDT 10:11 PM EDT
Moon 4:28 PM EDT 3:47 AM EDT
Length of Visible Light 15h 08m
Length of Day
14h 06m
Waxing Gibbous, 83% of the Moon is Illuminated
May 2
Waxing Gibbous
May 5
Full
May 12
Last Quarter
May 20
New
May 28
First Quarter

Hourly Weather History & Observations

Time (EDT) Temp. Heat Index Dew Point Humidity Pressure Visibility Wind Dir Wind Speed Gust Speed Precip Events Conditions
12:51 AM 53.1 °F - 48.9 °F 86% 30.01 in 7.0 mi ENE 5.8 mph - N/A   Overcast
1:51 AM 53.1 °F - 48.9 °F 86% 30.00 in 8.0 mi East 3.5 mph - N/A   Overcast
2:51 AM 53.6 °F - 50.0 °F 88% 29.98 in 7.0 mi Calm Calm - N/A   Overcast
3:51 AM 53.1 °F - 51.1 °F 93% 29.97 in 5.0 mi Calm Calm - 0.00 in   Overcast
4:51 AM 53.1 °F - 51.1 °F 93% 29.96 in 5.0 mi Calm Calm - N/A   Overcast
5:51 AM 55.0 °F - 52.0 °F 89% 29.96 in 7.0 mi North 6.9 mph - N/A   Overcast
6:51 AM 51.1 °F - 48.0 °F 89% 29.98 in 4.0 mi ENE 6.9 mph - N/A   Overcast
7:51 AM 55.4 °F - 51.8 °F 88% 29.97 in 4.0 mi Calm Calm - N/A   Overcast
8:16 AM 60.8 °F - 55.4 °F 82% 29.98 in 8.0 mi South 5.8 mph - N/A   Overcast
8:33 AM 62.6 °F - 55.4 °F 77% 29.99 in 10.0 mi SSW 8.1 mph - N/A   Overcast
8:51 AM 63.0 °F - 57.0 °F 81% 29.99 in 10.0 mi SSW 6.9 mph - N/A   Overcast
9:51 AM 64.9 °F - 59.0 °F 81% 29.99 in 10.0 mi SSW 8.1 mph - N/A   Overcast
10:51 AM 66.9 °F - 59.0 °F 76% 29.99 in 10.0 mi SW 8.1 mph - 0.01 in   Overcast
11:51 AM 68.0 °F - 59.0 °F 73% 29.98 in 10.0 mi Calm Calm - N/A   Overcast
12:51 PM 71.1 °F - 60.1 °F 68% 29.96 in 10.0 mi North 5.8 mph - N/A   Overcast
1:15 PM 69.8 °F - 60.8 °F 73% 29.96 in 10.0 mi NNW 5.8 mph - N/A   Mostly Cloudy
1:51 PM 70.0 °F - 60.1 °F 71% 29.96 in 10.0 mi North 4.6 mph - N/A   Overcast
2:51 PM 77.0 °F - 63.0 °F 62% 29.93 in 10.0 mi Calm Calm - N/A   Scattered Clouds
3:51 PM 82.0 °F 83.4 °F 64.0 °F 54% 29.90 in 10.0 mi SW 11.5 mph - N/A   Scattered Clouds
4:51 PM 81.0 °F 82.5 °F 64.0 °F 56% 29.88 in 10.0 mi SSW 12.7 mph 19.6 mph N/A   Mostly Cloudy
5:51 PM 77.0 °F - 63.0 °F 62% 29.89 in 10.0 mi Calm Calm - N/A   Overcast
6:51 PM 75.9 °F - 63.0 °F 64% 29.90 in 10.0 mi WSW 4.6 mph - N/A   Mostly Cloudy
7:51 PM 77.0 °F - 61.0 °F 58% 29.91 in 10.0 mi WSW 11.5 mph 17.3 mph N/A   Scattered Clouds
8:51 PM 73.9 °F - 60.1 °F 62% 29.92 in 10.0 mi WSW 11.5 mph - N/A   Clear
9:51 PM 75.2 °F - 60.8 °F 61% 29.95 in 10.0 mi WSW 9.2 mph 19.6 mph N/A   Scattered Clouds
10:51 PM 75.2 °F - 60.8 °F 61% 29.97 in 10.0 mi WSW 8.1 mph - N/A   Partly Cloudy
11:51 PM 73.9 °F - 62.1 °F 66% 29.97 in 10.0 mi SW 10.4 mph 17.3 mph N/A   Clear